Regional Weather Roundup
Issued by NWS Upton, NY

Current Version | Previous Version | Graphics & Text | Print | Product List | Glossary Off
Versions: 1 2 3 4 5 6 7 8 9 10 11 12 13 14 15 16 17 18 19 20 21 22 23 24 25 26 27 28 29 30 31 32 33 34 35 36 37 38 39 40 41 42 43 44 45 46 47 48 49 50

000
ASUS41 KOKX 230805
RWROKX

REGIONAL WEATHER ROUNDUP
NATIONAL WEATHER SERVICE NEW YORK NY
400 AM EDT SAT JUL 23 2016

NOTE: "FAIR" INDICATES FEW OR NO CLOUDS BELOW 12,000 FEET WITH NO
SIGNIFICANT WEATHER AND/OR OBSTRUCTIONS TO VISIBILITY.

NYZ071-072-176-178-NJZ106-104-230900-
NEW YORK CITY METRO AREA

CITY           SKY/WX    TMP DP  RH WIND       PRES   REMARKS
Central Park   CLEAR     82  64  54 NW6       29.86R
LaGuardia APRT PTCLDY    84  66  54 NW16      29.81S
Kennedy INTL   PTCLDY    80  69  69 W7        29.83R
Newark/Liberty PTCLDY    81  66  60 W8        29.82S
BRNX BOT. GARD   N/A     82  63  51 NW3       29.83S
Wall St Helipt SUNNY     81  68  65 NE3       29.83S
Teterboro      CLEAR     82  63  52 W7        29.82R
$$

NYZ177-179-078>081-230900-
LONG ISLAND NEW YORK

CITY           SKY/WX    TMP DP  RH WIND       PRES   REMARKS
FARMINGDALE    CLEAR     77  71  82 W5        29.82R
ISLIP          CLEAR     76  71  85 W8        29.80S
SHIRLEY        CLEAR     74  69  85 W5        29.81R
RIVERHEAD      NOT AVBL
WESTHAMPTON    CLEAR     71  68  90 CALM      29.81S
SOUTHAMPTON      N/A     73  70  88 SW1       29.76R
BRIDGEHAMPTON    N/A     75  70  83 CALM      29.78S
EAST HAMPTON   FAIR      74  70  87 CALM      29.78S
MONTAUK POINT    N/A     77  71  82 VRB5      29.79S
$$

NYZ052-065-067-230900-
HUDSON VALLEY

CITY           SKY/WX    TMP DP  RH WIND       PRES   REMARKS
WHITE PLAINS   PTCLDY    79  66  64 NW9       29.83R
NEWBURGH       CLEAR     73  68  83 W9        29.86R
MONTGOMERY     CLEAR     70  65  84 W5        29.84S
POUGHKEEPSIE   CLEAR     72  68  87 CALM      29.81R
ALBANY         CLEAR     76  64  66 W13       29.78F
$$

NJZ001-105-106-008-010-013-015-019>022-104-230900-
NEW JERSEY

CITY           SKY/WX    TMP DP  RH WIND       PRES   REMARKS
NEWARK/LIBERTY PTCLDY    81  66  60 W8        29.82S
TETERBORO      CLEAR     82  63  52 W7        29.82R
CALDWELL       CLEAR     79  66  64 CALM      29.84S
MORRISTOWN     CLEAR     70  63  78 CALM      29.85S
SOMERVILLE     CLEAR     69  67  93 CALM      29.84R FOG
SUSSEX         CLEAR     67  66  97 CALM      29.87R
ANDOVER          N/A     67  65  93 CALM      29.88S
TRENTON        CLEAR     76  67  73 W3        29.85S
MILLVILLE      CLEAR     77  71  82 W6        29.89S
ATLANTIC CITY  CLEAR     79  71  76 W9        29.87F
WRIGHTSTOWN    CLEAR     74  71  87 SW5       29.84S
TOMS RIVER     CLEAR     77  70  78 W7        29.86S
BELMAR         CLEAR     77  70  79 SW7       29.86S
$$

PAZ047>061-062-071-230900-
EASTERN PENNSYLVANIA

CITY           SKY/WX    TMP DP  RH WIND       PRES   REMARKS
PHILADELPHIA   CLEAR     80  70  71 W9        29.87S
ALLENTOWN      CLEAR     73  66  78 W5        29.89R
SCRANTON       PTCLDY    72  63  73 CALM      29.90S
$$

CTZ002-004>006-009-010-012-RIZ004-006-007-MAZ004-011-015-230900-
SOUTHERN NEW ENGLAND
 IN CT

CITY           SKY/WX    TMP DP  RH WIND       PRES   REMARKS
BRADLEY INTL   PTCLDY    74  68  81 W8        29.77S
HARTFORD       CLEAR     75  71  87 S5        29.77S
DANBURY        CLEAR     72  66  81 CALM      29.83S
WTRBRY/OXFORD    N/A     73  64  73 NW5       29.82S
BRIDGEPORT     CLEAR     78  70  76 SW6       29.79S
MERIDEN        FOG       73  71  93 CALM      29.79R VSB 1/2
NEW HAVEN      CLEAR     71  68  90 CALM      29.79S
CHESTER        FAIR      77  70  78 W5        29.79S
GROTON         PTCLDY    74  69  85 CALM      29.76F
WILLIMANTIC    NOT AVBL

 IN RI

CITY           SKY/WX    TMP DP  RH WIND       PRES   REMARKS
PROVIDENCE     CLEAR     71  70  96 S3        29.77S FOG
BLOCK ISLAND   MOCLDY    70  69  97 W9        29.78F
WESTERLY       CLEAR     73  68  84 CALM      29.77F

 IN MA

CITY           SKY/WX    TMP DP  RH WIND       PRES   REMARKS
BOSTON         CLEAR     76  68  76 SW8       29.74R
WORCESTER      PTCLDY    73  62  68 W14       29.80S
WESTFIELD      CLEAR     68  66  93 CALM      29.77F
PROVINCETOWN   CLOUDY    71  67  87 SW15      29.75F
NANTUCKET      LGT RAIN  69  67  93 SE10      29.81S FOG
$$

ANZ330-335-338-340-345-350-353-355-230900-
COASTAL MARINE OBSERVATIONS


STATION/POSITION TIME  SKY/WX   TEMP    WIND        PRES    VSBY  WAVE
                                AIR SEA DIR/SP/G                  HT/PER
                 (UTC)          (F)     (DEG/KT/KT) (MB)    (MI)  (FT/S)
NY HARB ENTRANCE 0650            76 71  260/ 10/ 12 1009.6          3/ 6
20S FIRE ISLAND  0650            76 74  240/ 14/ 17 1009.2          6/ 7
GREAT SOUTH BAY  0700            79 79  280/ 10/ 16   N/A
23 SSW MONTAUK P 0650            74 71  240/ 17/ 19 1009.1          6/ 6
15 E BARNEGAT LI NOT AVBL
HUDSON CANYON    0650            78 76              1010.2          5/ 7
KINGS POINT      0700            79 71              1009.5
EXECUTION ROCKS  0700            77     230/  4/  6   N/A
CENTRAL LI SOUND 0700            75 71  250/ 10/ 12   N/A           2/ 3
EASTERN LI SOUND 0700            72 68  280/  8/ 14   N/A
ROBBINS REEF     0700            82     270/ 11/ 13 1009.2
$$


>>>>>>>>>>>>>>>>>>>>>>>>>>>> KEY <<<<<<<<<<<<<<<<<<<<<<<<<<<
>                                                          <
>     SKY/WX - SKY CONDITION/PRESENT WEATHER               <
>     TMP    - TEMPERATURE IN FAHRENHEIT                   <
>     DP     - DEWPOINT IN FAHRENHEIT                      <
>     RH     - RELATIVE HUMIDITY IN PERCENT                <
>     WIND   - DIRECTION AND SPEED IN MPH                  <
>     PRES   - MEAN SEA LEVEL PRESSURE IN INCHES OF HG     <
>     WCI    - WIND CHILL INDEX                            <
>     VSB    - VISIBILITY IN MILES                         <
>     HX     - HEAT INDEX                                  <
>     TC     - TEMPERATURE IN CELSIUS                      <
>     VRB    - VARIABLE WIND DIRECTION                     <
>                                                          <
>>>>>>>>>>>>>>>>>>>>>>>>>>>> KEY <<<<<<<<<<<<<<<<<<<<<<<<<<<





USA.gov is the U.S. government's official web portal to all federal, state and local government web resources and services.